Theta_e
347 348 349 350 351 350 350 350 349 350 352 351 351 351 351 354 353 352 352 350 352 352 353 354 354 354 354 355 354 355 355 355 355 356 356 355 355 355 355 353 352 352 354 353 355 354 355 352 351 352 354 354 354 354 353 352 352 353 353 352 352 351 350 347 343 343 347 349 349 348 349 351 348 349 348 349 350 352 352 354 354 353 353 353 353
347 348 349 350 349 350 350 351 351 352 352 353 350 352 351 352 354 354 352 351 349 349 350 351 352 353 353 354 355 355 355 355 356 355 354 354 354 353 354 353 352 352 353 351 352 354 353 352 351 351 353 353 354 351 351 351 353 353 352 349 351 349 350 347 343 341 341 345 346 350 350 350 345 349 347 346 347 350 349 351 353 354 352 352 351
349 349 349 349 349 350 352 352 352 351 353 352 351 350 353 351 352 351 351 349 350 349 350 349 350 351 351 353 354 354 355 355 355 354 354 353 353 352 354 352 351 351 351 350 350 351 350 351 351 351 352 352 352 348 351 352 354 351 349 348 348 349 348 347 344 340 340 342 345 345 347 348 346 345 348 348 349 348 347 348 350 352 353 352 351
350 350 350 350 350 351 350 350 350 350 350 350 349 349 351 349 352 351 351 351 349 350 349 348 349 349 349 350 351 353 354 354 355 354 353 353 352 352 355 352 352 351 351 349 348 348 349 348 348 349 351 349 349 347 347 348 349 349 349 348 348 348 348 347 345 343 341 340 344 345 347 345 347 348 348 348 346 345 346 347 350 349 350 349 347
350 350 351 351 351 349 349 350 350 349 350 349 349 349 349 349 351 351 351 351 350 350 351 350 348 349 348 348 350 351 352 353 353 354 354 354 354 353 352 346 348 348 348 348 349 347 347 347 348 349 349 347 347 346 347 346 347 348 347 347 348 348 347 347 346 344 342 340 342 346 347 345 346 346 346 343 342 343 346 345 346 347 347 346 346
350 351 351 349 348 348 349 348 348 348 348 348 349 350 350 349 350 352 352 351 351 350 350 351 350 348 349 350 350 351 352 353 353 354 355 355 355 354 350 348 347 347 347 346 347 348 347 346 348 349 348 347 347 346 346 346 347 346 346 346 346 347 347 347 347 346 344 343 342 342 343 342 342 342 343 342 339 339 341 344 346 346 344 341 343
348 348 346 346 346 348 347 347 348 348 348 348 349 350 350 350 350 350 352 352 351 350 350 350 351 350 350 351 351 352 352 354 354 355 356 356 354 351 348 347 346 346 345 344 344 346 347 347 347 348 348 347 346 347 345 345 346 346 347 345 346 345 346 345 345 344 343 342 343 340 340 343 339 336 341 343 341 340 338 338 339 342 343 341 340
345 345 345 344 344 346 347 347 348 349 349 349 349 349 350 350 350 351 353 351 351 350 350 350 351 352 351 351 354 355 354 354 354 355 354 354 352 350 347 345 345 344 344 344 345 346 346 347 349 349 348 348 348 348 347 348 347 347 346 344 345 346 344 345 344 343 342 341 340 340 341 337 337 338 340 339 336 336 337 337 335 335 337 340 339
345 344 343 343 344 347 346 348 349 349 350 349 348 348 348 348 348 348 349 349 350 351 350 351 351 352 353 353 355 356 354 353 353 353 353 352 350 348 347 346 345 344 343 343 345 345 346 347 347 348 351 352 353 352 352 351 348 347 346 347 346 345 344 343 343 341 341 341 340 338 336 335 335 334 333 333 332 331 334 335 334 335 335 336 339
345 344 343 344 345 347 348 347 349 349 349 348 347 348 347 348 347 345 345 346 347 348 350 352 352 352 352 353 353 353 353 353 357 358 356 352 349 348 349 348 345 342 343 344 345 345 346 347 351 352 351 351 350 349 350 350 351 352 350 346 346 345 344 342 342 342 341 340 337 335 333 330 332 333 332 333 335 334 333 332 331 333 334 335 338
345 344 343 344 344 345 347 348 348 348 348 349 349 348 347 347 347 346 345 345 345 347 351 350 352 352 352 351 351 352 353 353 358 347 349 355 350 348 347 346 344 344 345 345 346 346 344 344 346 346 342 342 345 347 348 347 347 348 350 351 350 347 344 343 343 343 341 338 334 333 331 331 332 332 332 333 334 332 331 331 331 332 330 329 329
344 343 344 344 344 344 345 347 347 348 348 348 349 348 347 347 346 346 345 345 345 347 348 349 351 351 351 351 351 352 352 355 343 344 348 349 352 348 347 345 344 343 346 347 346 343 339 336 337 340 342 339 334 337 345 347 348 348 350 351 351 351 351 348 345 340 338 335 333 332 331 331 331 332 333 333 332 333 333 331 331 330 329 329 330
344 343 344 345 346 346 346 346 345 347 347 348 348 348 347 346 345 345 344 345 347 347 347 350 348 348 349 348 348 350 351 350 339 343 344 345 349 352 348 346 344 344 346 347 344 340 338 335 332 332 336 339 335 334 337 343 346 347 346 348 348 348 344 345 346 345 342 335 333 331 332 332 331 332 334 334 333 331 331 331 330 330 331 330 331
345 345 346 346 347 347 347 345 345 346 348 348 348 348 347 345 346 346 346 347 347 347 349 346 345 345 346 346 345 346 348 349 338 340 342 343 346 351 349 348 347 347 347 345 342 340 338 334 332 331 332 334 334 334 334 335 336 336 337 337 338 341 344 344 344 344 341 336 334 331 332 334 332 333 334 335 333 332 331 330 331 331 331 330 333
343 344 345 346 347 347 347 345 345 347 348 348 348 348 347 346 346 347 348 348 346 344 344 345 346 347 348 347 346 345 348 339 337 339 338 340 344 353 350 349 348 347 346 344 341 335 333 332 332 331 332 335 338 335 334 335 334 334 334 334 334 334 333 335 336 336 336 334 332 332 331 332 333 334 336 336 335 336 335 334 334 333 333 334 334
344 344 343 345 347 347 346 345 346 347 348 348 348 348 348 346 346 347 345 343 344 345 345 345 344 344 345 345 344 343 341 334 336 336 335 338 346 350 348 346 345 344 342 338 335 333 332 332 331 330 331 333 337 336 335 335 333 331 330 329 329 329 328 331 329 331 331 331 330 329 328 328 330 331 331 332 335 337 338 338 337 334 331 329 327
342 345 345 345 346 346 345 344 345 347 348 347 347 348 347 347 346 345 342 343 342 342 343 343 343 344 343 343 342 341 338 332 330 331 333 336 345 345 343 342 340 338 336 332 331 331 331 331 331 331 331 333 333 328 331 332 329 328 326 325 326 326 325 326 327 327 326 324 324 326 326 325 326 325 324 326 329 332 332 330 328 330 328 325 325
341 343 344 345 346 345 344 344 344 346 347 347 346 345 345 347 346 345 342 342 342 342 343 342 343 343 343 341 341 339 334 331 327 328 331 336 345 341 340 338 337 335 333 334 336 336 337 337 334 332 332 333 329 327 328 330 326 325 324 323 323 323 322 322 321 322 323 323 323 322 323 323 324 325 325 325 326 328 327 323 325 328 326 325 322
341 341 343 343 344 344 344 344 344 345 346 348 349 346 347 346 344 344 343 343 343 343 343 341 341 341 342 341 343 339 334 332 323 326 330 333 340 339 338 336 334 333 333 333 335 335 336 337 337 335 333 331 324 324 326 328 325 323 323 322 320 320 321 321 320 320 320 318 318 319 320 321 321 321 323 324 325 325 324 323 326 326 322 320 319
343 343 343 344 344 344 344 345 345 346 346 348 349 348 346 342 342 342 343 344 343 343 342 341 339 339 341 341 342 338 335 333 329 323 327 328 332 339 336 334 332 331 331 330 329 328 327 327 327 324 322 321 320 319 321 323 324 323 322 320 319 318 322 322 320 318 318 317 316 317 317 318 318 318 318 319 320 322 322 322 323 323 320 316 314
344 343 342 343 344 344 345 345 346 347 347 347 348 348 345 343 342 342 342 343 342 342 341 340 340 339 340 340 339 336 337 335 330 321 323 325 329 335 335 333 332 331 331 330 328 326 325 323 323 322 318 317 316 314 315 320 324 324 324 322 320 320 320 319 319 319 316 316 316 316 315 316 316 316 317 317 318 318 319 320 319 319 317 314 312
343 343 341 341 343 344 343 344 346 347 345 346 346 346 345 344 343 342 342 341 340 339 339 338 337 335 335 335 335 336 341 339 330 323 323 322 324 329 334 333 333 331 329 328 327 325 324 324 323 320 315 315 313 311 312 316 320 322 321 316 317 319 319 318 317 316 315 314 314 313 313 313 313 315 315 315 316 317 317 317 318 318 317 316 314
344 343 342 341 342 343 344 343 342 345 345 346 344 343 344 342 341 342 341 341 339 337 336 335 333 332 332 333 334 336 337 339 337 332 324 320 320 323 326 331 327 332 329 327 326 325 325 323 322 320 313 310 309 310 312 315 320 316 312 314 316 318 319 318 317 314 314 313 313 312 312 312 312 312 313 313 314 315 315 316 316 316 317 317 316
344 343 343 343 342 341 343 344 343 343 345 345 344 343 342 340 339 340 340 340 337 335 334 334 332 331 330 330 332 334 337 339 339 337 330 320 318 319 321 322 326 330 331 328 327 326 323 322 320 311 307 305 308 311 314 319 317 310 313 316 317 317 317 316 315 314 314 312 311 311 311 311 312 311 312 313 314 315 314 315 315 316 315 314 315
343 341 342 343 342 341 341 341 343 343 344 344 342 342 340 339 338 339 339 338 336 334 333 333 331 331 331 331 331 333 336 337 338 336 331 327 319 318 320 321 321 323 330 330 329 326 320 311 307 307 308 309 311 314 316 317 313 313 315 317 317 315 315 314 313 313 312 310 310 310 310 311 312 312 313 314 316 316 315 314 315 315 314 315 314
342 341 340 340 340 341 341 341 343 343 343 342 341 342 341 340 338 339 339 337 336 334 332 332 331 331 330 331 332 333 334 336 335 335 336 333 328 322 321 327 335 336 335 330 327 318 312 310 311 313 317 318 320 321 321 320 319 319 317 317 315 314 314 313 313 312 311 311 311 309 310 311 311 313 314 315 313 312 314 312 312 312 313 312 311
343 342 341 339 339 340 340 341 340 341 341 342 341 341 341 340 339 339 337 336 334 334 333 332 331 331 331 332 333 334 334 335 335 335 334 332 331 333 335 336 338 335 327 322 319 316 318 321 321 319 319 322 321 321 321 319 318 317 316 316 315 314 314 314 313 313 312 311 311 310 311 312 314 314 312 312 312 312 314 313 310 310 311 311 310
342 342 342 343 340 340 340 342 340 338 340 341 338 339 339 340 339 337 336 335 334 333 332 331 331 331 331 332 332 332 331 332 333 333 332 333 334 336 336 333 330 326 320 318 319 324 325 325 323 321 319 316 315 315 316 317 316 315 314 315 317 318 317 316 314 313 312 312 312 312 312 313 312 311 311 311 310 311 313 312 311 310 310 310 308
342 342 342 341 339 340 341 340 338 333 325 319 316 319 331 339 337 335 337 338 337 335 332 332 333 334 333 332 330 330 330 330 332 326 333 325 332 334 332 329 329 326 324 321 326 325 321 318 317 314 314 314 313 313 312 313 314 314 313 312 312 313 314 313 312 312 313 314 312 312 310 311 311 311 311 310 311 311 313 313 312 311 311 310 307
340 339 339 337 336 335 333 332 331 330 328 325 323 320 313 305 311 334 336 332 327 326 324 333 334 334 332 332 331 332 331 331 315 310 310 311 313 316 318 316 318 325 322 318 322 316 314 313 313 313 312 312 311 312 311 311 312 312 314 314 314 313 313 313 312 313 314 313 313 312 311 311 310 310 310 310 311 311 312 310 311 312 310 308 306
339 337 337 335 334 332 331 330 330 328 327 327 326 323 322 318 302 304 321 324 313 308 310 313 319 324 330 324 315 313 313 306 303 303 304 305 305 305 306 307 308 308 311 318 316 314 313 313 312 313 313 313 312 312 313 312 312 312 311 312 313 313 312 312 311 313 313 312 312 312 312 311 311 310 309 310 310 310 311 312 312 312 309 308 306
338 336 336 336 335 331 330 330 328 326 326 328 328 328 326 322 317 303 302 306 306 305 305 306 308 310 313 317 318 311 305 301 300 301 301 302 304 304 304 303 303 305 306 310 315 314 314 313 313 313 313 313 314 315 314 313 313 313 312 311 312 314 313 312 311 312 312 311 311 311 311 311 310 310 310 310 310 309 309 309 309 308 309 308 308
338 336 335 337 335 333 330 329 328 327 327 327 328 329 326 322 318 315 310 302 301 300 300 301 303 304 305 305 308 307 303 299 298 298 300 300 301 302 301 301 301 302 308 313 313 313 313 313 312 313 313 313 314 313 314 313 313 312 314 314 313 313 315 313 311 314 313 312 312 311 310 310 310 310 311 310 309 307 308 308 309 309 308 307 307
339 337 336 335 332 331 330 330 329 328 329 330 330 329 327 324 321 321 320 319 316 308 303 300 299 299 299 300 300 298 297 297 298 299 299 300 300 300 302 306 300 303 308 314 314 313 313 313 313 313 312 313 313 315 315 315 315 315 315 314 314 314 314 312 313 314 313 312 311 311 312 311 311 310 309 309 309 309 308 308 308 307 307 306 306
337 340 340 337 332 331 331 331 330 329 330 330 329 329 327 326 327 328 327 323 320 318 314 313 305 301 305 301 297 297 297 298 299 299 299 300 301 301 306 314 313 313 314 315 315 314 314 313 313 313 314 314 314 315 314 315 315 315 315 314 313 313 313 314 313 313 313 311 311 311 312 311 311 310 310 308 307 307 307 307 307 307 306 306 306
337 338 339 337 332 332 331 330 331 330 330 331 330 329 329 329 329 329 326 325 321 315 312 311 309 304 300 297 296 297 297 298 298 299 299 301 302 306 315 313 313 313 314 314 314 315 315 314 314 314 315 316 316 314 314 314 314 314 313 314 314 314 314 314 314 314 313 311 311 311 310 309 308 307 307 307 307 306 306 306 306 306 307 307 307
337 337 337 333 332 332 331 331 330 331 331 331 329 329 330 330 329 327 325 322 320 315 310 310 310 311 311 311 307 299 298 298 299 299 300 301 304 315 315 314 314 314 314 313 315 315 314 314 315 314 315 315 314 314 315 313 313 314 314 314 314 313 313 313 313 312 310 309 308 307 308 307 306 306 306 305 306 306 306 306 306 306 306 306 306
337 337 335 333 332 331 331 330 330 330 330 330 330 330 330 328 327 325 321 318 316 313 312 313 314 311 309 309 312 309 306 302 301 301 302 304 312 315 315 315 315 314 314 315 315 315 314 313 313 314 313 313 313 313 313 313 314 314 316 313 313 314 314 310 309 308 309 307 306 306 306 305 305 305 305 304 304 303 303 304 304 303 304 305 305
337 333 330 330 331 331 330 330 330 329 329 329 328 329 328 326 324 321 318 317 317 315 315 314 313 312 311 312 313 316 314 313 314 314 315 315 316 316 316 316 315 315 315 316 317 315 313 313 314 314 314 313 314 313 314 313 313 313 312 311 310 307 307 307 306 306 306 305 304 304 304 303 303 303 303 302 301 302 302 302 302 303 302 302 302
335 333 330 329 330 330 330 330 330 329 328 326 326 327 327 325 322 320 319 317 315 314 314 314 313 313 313 314 315 314 313 314 315 315 314 315 315 315 315 315 315 316 316 316 315 314 314 314 315 315 314 314 314 313 313 313 311 311 311 310 307 305 304 304 304 304 303 304 302 302 301 301 301 301 301 301 301 301 300 300 301 301 301 301 301
334 333 333 330 329 329 330 329 328 325 324 325 326 324 323 323 321 320 318 317 317 317 316 315 313 314 315 313 309 310 315 315 316 316 316 315 315 315 315 316 316 316 316 316 315 315 315 315 315 315 314 313 312 312 311 311 312 311 310 308 306 305 303 303 302 302 301 301 301 300 300 300 300 299 298 299 300 300 300 300 300 300 301 301 300
334 332 332 330 329 330 329 327 326 325 324 324 322 322 322 321 319 318 318 318 318 317 316 315 314 315 310 305 303 304 314 317 317 317 317 317 316 316 316 317 317 317 316 315 315 315 314 314 313 313 313 313 313 312 311 310 309 308 306 306 305 303 302 301 301 301 300 299 299 299 299 298 298 299 298 299 299 299 299 299 299 299 299 299 300
335 333 332 331 330 330 328 325 323 321 321 320 321 322 321 319 318 319 318 318 318 317 316 315 315 314 312 308 309 310 315 317 319 317 316 316 317 317 316 316 316 317 317 316 315 315 314 313 311 309 308 307 308 309 309 308 307 305 304 303 303 302 301 300 300 299 299 298 298 299 297 297 298 298 298 299 299 299 298 299 299 299 299 300 300
335 334 333 331 331 330 326 323 322 321 320 321 321 321 320 319 319 318 317 317 317 317 316 315 315 314 313 311 311 314 316 316 315 317 317 317 315 315 315 314 314 315 314 313 313 313 312 309 306 303 303 303 304 305 305 306 305 304 304 303 302 301 299 299 298 297 297 297 297 297 296 297 297 297 298 299 298 298 298 299 298 299 299 299 299
334 333 332 331 329 326 324 323 322 321 322 320 319 320 321 319 318 318 318 318 319 318 317 316 315 315 315 315 316 315 314 315 317 318 316 316 315 314 313 313 314 313 311 312 312 311 309 306 304 303 301 301 301 302 302 303 304 304 304 303 302 299 298 298 297 298 297 296 295 296 296 296 296 297 298 298 299 298 298 298 298 299 298 298 297
334 334 332 329 326 324 322 322 322 320 319 319 318 318 318 319 319 319 318 317 317 317 317 316 315 315 316 314 315 314 314 314 314 314 315 314 313 312 311 311 312 311 311 311 310 309 306 304 303 301 300 300 300 300 300 301 301 301 301 300 299 299 298 298 298 298 296 295 295 295 296 296 296 298 298 298 298 298 298 298 299 299 299 298 297
332 333 331 328 324 323 322 321 320 319 319 319 318 317 317 317 318 319 319 318 318 319 317 316 314 314 314 314 313 313 314 312 312 313 313 312 310 309 309 310 310 310 310 309 308 307 305 303 302 301 300 300 299 299 299 299 299 299 299 299 298 298 297 297 297 296 295 296 295 294 295 295 296 297 298 298 298 297 298 298 298 298 298 298 297
328 328 328 326 323 322 321 321 320 321 318 318 318 318 318 318 318 318 318 318 317 317 316 315 314 314 314 313 314 312 312 312 313 314 312 310 309 310 311 311 310 309 307 306 304 303 302 302 301 301 301 300 299 298 298 298 298 298 298 298 297 296 294 293 296 296 295 295 295 295 295 295 296 296 297 297 297 297 297 297 298 297 297 297 297
325 325 324 323 322 321 320 319 318 317 317 317 317 317 317 317 317 317 317 316 316 315 315 314 314 314 314 313 313 312 315 317 311 311 310 310 310 311 310 310 308 307 305 303 303 302 302 301 301 300 300 300 299 298 297 298 297 297 297 296 295 293 292 292 294 294 291 294 295 295 295 295 296 297 298 297 297 297 297 298 297 297 297 297 297
320 320 319 318 318 317 318 317 317 317 318 317 316 316 316 316 316 316 316 315 315 315 315 315 315 315 314 313 314 313 312 312 311 310 310 311 311 310 309 307 306 305 303 302 302 301 301 301 300 299 299 298 298 298 298 298 297 297 297 296 294 292 292 291 290 289 291 294 294 295 296 296 297 297 296 296 297 297 297 297 297 296 296 295 296
319 317 317 317 316 316 316 316 316 316 316 316 316 315 315 315 315 315 315 315 314 315 315 314 314 315 314 315 318 313 312 311 312 311 311 311 310 309 308 307 305 303 302 301 301 300 300 299 299 299 299 299 298 297 297 297 297 297 296 294 293 290 289 289 292 288 287 288 294 296 297 297 297 296 295 295 296 297 297 296 296 295 295 295 295
Wind_Speed
11 12 11 13 14 15 15 14 15 12 9 7 9 9 8 8 8 7 6 8 7 7 7 6 7 6 6 6 7 6 7 6 6 6 6 7 6 6 5 5 5 3 4 4 1 2 2 2 3 2 2 2 2 2 2 2 2 1 1 1 2 2 3 4 4 6 1 1 1 2 3 4 6 5 8 8 7 6 7 5 6 7 8 7 8
11 12 11 12 15 15 15 12 6 3 3 6 9 9 6 7 7 6 8 7 7 8 8 7 6 7 6 6 6 6 6 7 6 6 7 7 6 5 4 6 6 6 5 6 5 3 3 3 2 1 1 2 1 1 2 3 3 2 2 2 2 2 1 2 3 3 5 1 3 2 2 3 7 5 7 8 9 8 9 7 5 5 7 7 7
11 11 12 12 14 13 5 8 8 7 8 8 9 10 7 2 3 8 9 8 8 8 8 8 8 7 7 6 7 6 7 8 6 7 7 8 7 5 5 8 8 8 7 7 5 3 3 3 3 3 3 3 3 2 3 3 2 3 2 1 2 1 2 3 3 3 4 3 0 4 2 5 5 7 8 7 7 6 6 7 6 5 4 5 5
9 10 11 12 11 5 10 10 14 12 11 10 13 13 8 10 9 8 9 8 9 8 8 9 7 7 7 7 7 7 7 7 7 7 9 9 9 8 8 6 3 2 5 5 5 5 4 4 4 4 3 3 2 4 4 5 3 3 2 2 2 2 2 2 3 4 1 4 2 2 1 6 5 5 6 6 6 6 5 6 5 6 5 5 5
7 9 10 10 5 9 10 6 5 6 7 10 12 10 9 10 9 10 8 8 8 8 8 8 7 7 7 8 8 8 8 8 8 8 8 8 8 7 6 7 7 9 6 5 5 4 4 5 4 3 3 3 2 2 2 3 2 2 2 1 2 2 1 2 2 3 3 4 3 1 2 3 4 5 5 7 7 6 6 7 6 6 6 6 4
5 5 3 4 6 9 9 11 12 11 12 12 11 10 9 10 11 10 10 10 9 8 9 7 6 8 8 8 8 8 8 8 8 8 8 5 4 5 8 9 9 9 7 5 4 3 5 5 3 2 3 3 2 1 2 2 1 1 1 1 1 2 1 2 3 3 5 4 2 2 3 5 4 3 4 6 6 5 5 5 5 5 6 8 6
3 4 8 6 4 7 7 8 11 13 14 15 11 10 10 11 11 11 10 9 9 8 7 7 6 7 8 8 8 7 7 7 7 7 7 7 8 9 8 8 7 6 5 4 3 3 4 2 2 3 3 3 2 3 2 2 2 2 2 2 3 2 3 2 1 2 2 3 2 3 2 2 3 4 5 4 3 2 5 5 5 4 4 4 5
4 3 7 8 9 8 6 10 11 13 13 11 9 10 10 9 10 9 8 8 8 8 7 8 8 8 8 8 7 7 7 7 7 7 8 9 9 8 9 9 6 3 3 4 3 3 2 2 2 2 2 3 4 4 4 3 3 2 2 3 3 3 2 2 1 1 1 2 2 1 1 2 3 3 3 3 3 2 5 4 5 6 7 4 2
3 5 5 4 9 8 9 9 10 11 11 9 7 8 8 8 7 6 7 7 5 5 7 8 8 8 7 7 7 7 7 7 7 8 8 8 9 10 10 10 8 4 2 3 2 3 3 2 3 3 4 6 8 6 5 5 3 3 3 3 3 3 2 2 3 1 4 2 1 2 2 2 3 4 4 4 5 4 4 4 3 5 6 4 2
5 6 7 8 8 7 8 10 10 9 9 9 8 9 9 9 7 7 8 8 8 8 7 6 7 8 8 7 6 6 6 5 9 14 12 10 9 8 7 8 9 8 6 4 3 2 2 2 2 6 4 5 6 4 4 4 4 3 3 4 4 3 3 3 3 3 3 4 3 3 2 2 2 3 2 2 2 3 4 4 4 5 5 4 1
5 6 6 8 8 7 7 9 11 11 11 10 10 11 11 10 9 9 9 9 9 9 8 7 7 7 8 8 7 6 6 6 14 14 14 15 10 8 6 5 7 8 9 7 6 6 4 3 4 5 5 5 4 5 4 3 3 3 3 6 7 5 4 3 3 3 4 2 3 3 2 2 2 2 1 2 2 4 4 3 3 4 5 5 4
6 5 6 7 9 10 9 7 8 11 12 11 10 11 10 9 10 10 10 10 8 7 9 9 6 4 3 6 7 6 6 10 13 11 9 9 11 8 6 6 6 7 8 8 7 6 5 5 4 3 3 3 3 4 4 5 5 5 7 10 7 4 3 1 2 3 3 4 4 2 2 2 2 3 3 4 5 5 4 3 3 3 4 3 3
6 7 8 8 9 9 9 11 11 11 11 8 8 9 10 10 10 10 10 9 7 8 7 6 6 3 3 5 4 2 1 8 14 13 11 12 15 13 7 7 7 6 7 7 7 5 5 5 4 2 4 7 5 4 4 5 9 12 13 12 12 13 11 11 9 5 3 5 5 4 4 3 3 3 3 3 2 3 4 3 3 3 3 4 4
8 8 8 9 10 9 9 9 10 12 10 9 8 9 9 11 11 9 7 7 7 5 5 8 9 6 6 5 3 4 6 3 12 14 11 11 12 10 8 8 7 7 8 8 5 6 5 5 4 4 4 5 4 5 5 5 5 6 7 7 8 12 14 15 15 13 10 7 7 6 4 3 3 2 3 2 2 4 3 3 3 4 5 4 5
10 11 11 11 10 10 12 13 13 10 10 10 9 9 10 9 8 6 3 4 6 7 8 9 9 8 6 5 5 6 4 10 10 11 11 12 13 11 8 8 7 6 6 6 6 6 6 5 6 6 5 5 4 5 5 5 6 6 8 8 8 8 9 8 7 7 7 7 7 6 5 4 4 4 3 1 2 3 3 2 4 5 3 3 1
6 6 7 7 8 9 9 8 8 8 9 8 8 9 9 8 7 5 8 11 8 7 7 7 9 9 7 7 7 6 5 10 12 12 12 13 13 7 8 7 8 8 8 7 6 6 5 6 7 7 6 6 6 8 7 6 6 8 8 8 7 8 9 10 11 11 9 7 6 6 6 7 9 8 8 6 4 4 2 2 3 3 3 3 5
7 7 8 8 9 9 10 9 8 8 7 7 7 7 6 6 6 8 11 11 11 10 9 10 10 9 9 9 10 9 5 7 12 13 14 15 11 7 7 7 8 9 7 6 6 6 5 7 7 7 7 7 6 7 7 9 7 7 7 7 6 6 5 5 10 12 12 12 12 12 11 11 12 13 13 14 10 6 1 2 5 4 4 4 4
9 8 7 8 8 8 9 9 8 8 7 8 7 4 5 5 8 9 10 11 11 10 10 10 10 11 12 11 8 7 6 7 12 14 16 14 13 10 8 9 9 8 8 7 7 8 9 13 10 8 8 7 6 8 7 9 7 6 6 7 7 6 5 4 3 5 10 11 12 14 15 14 15 15 16 15 15 11 7 5 5 3 4 3 2
8 8 8 7 7 7 8 8 7 7 8 8 8 7 7 8 9 9 8 8 9 10 11 10 9 7 6 7 12 10 9 9 12 14 17 16 13 9 9 9 10 9 10 9 9 9 9 10 12 9 8 8 10 9 10 9 7 6 6 7 7 7 4 4 5 6 6 8 8 9 10 12 10 9 11 17 17 13 9 7 5 5 5 5 4
7 7 8 7 8 7 7 8 8 8 9 9 7 7 8 9 8 8 8 7 10 10 10 8 9 7 7 9 10 10 9 7 10 13 16 17 16 11 9 10 10 10 9 10 9 7 7 7 9 10 11 12 12 12 10 10 7 5 5 6 6 6 1 6 7 6 7 8 7 8 8 7 8 8 8 9 10 11 10 8 7 6 6 6 6
6 7 7 7 8 8 7 7 8 9 8 7 7 9 9 9 9 9 9 8 9 9 9 7 8 8 8 7 7 8 8 10 10 12 16 17 17 14 9 9 9 9 9 9 9 8 6 6 6 8 12 13 12 12 11 10 9 6 5 5 5 6 5 7 8 11 7 8 7 7 6 6 7 7 7 7 8 8 8 9 8 8 7 6 6
7 6 6 7 7 6 3 4 8 5 4 7 7 9 8 8 8 8 7 8 9 10 9 9 8 7 6 6 6 6 8 12 9 12 16 17 16 16 10 9 11 11 9 8 8 7 7 6 5 7 13 13 13 13 12 11 10 7 7 9 9 10 8 6 6 6 6 6 6 7 6 6 6 6 7 7 7 7 6 7 7 8 8 7 6
6 5 6 7 8 6 3 4 3 5 7 8 7 8 8 8 6 7 8 9 9 10 9 9 9 9 7 6 5 5 7 9 15 12 15 16 16 15 16 12 13 11 12 10 9 8 7 7 8 12 13 14 14 13 13 13 10 8 11 11 11 11 9 6 7 6 6 6 6 6 6 5 6 6 6 5 6 6 6 5 6 6 7 7 7
6 5 5 5 5 6 5 5 7 5 6 7 7 6 7 8 8 6 6 8 8 9 9 8 8 9 9 7 6 6 6 7 12 14 13 15 14 17 17 17 14 9 9 10 9 9 8 7 8 12 13 14 14 13 12 11 9 11 11 11 10 9 6 6 6 6 6 6 6 5 5 4 4 4 4 4 4 4 5 5 5 5 5 5 5
5 4 4 2 3 2 3 2 3 5 5 5 4 5 6 9 9 8 9 8 8 8 8 8 9 10 8 8 7 7 7 7 8 12 15 14 16 16 16 15 15 16 11 9 10 8 11 14 14 14 14 15 15 14 12 11 12 11 11 11 10 5 5 5 5 5 6 6 5 4 4 4 3 3 2 2 3 4 4 4 4 5 4 3 4
3 3 1 1 3 4 1 2 5 7 9 8 8 4 6 7 8 8 8 8 9 9 9 9 9 10 8 8 8 8 8 8 8 8 9 12 12 16 16 17 16 17 16 13 16 16 15 15 16 15 13 12 9 7 7 8 12 12 11 9 5 4 4 5 5 5 5 5 5 4 3 2 3 2 2 3 5 5 4 5 5 5 4 4 4
2 2 2 4 3 2 3 2 6 8 8 6 6 5 4 6 7 8 9 9 9 9 10 10 10 10 11 10 9 9 10 10 10 8 7 9 8 10 12 13 20 18 12 11 14 11 12 10 8 10 11 14 13 12 10 10 8 6 5 4 4 4 3 4 4 5 5 4 4 3 2 2 1 3 4 4 4 3 3 3 3 3 3 2 3
4 3 2 2 4 3 4 7 6 4 4 5 8 5 4 5 6 7 8 9 10 10 9 10 9 11 12 11 10 10 9 8 9 10 9 8 8 8 9 10 9 8 10 10 11 10 11 13 10 8 8 7 6 5 5 4 4 4 3 3 3 3 5 7 6 4 3 3 3 2 2 2 3 3 2 3 3 2 2 2 2 2 2 1 3
3 2 2 3 4 5 5 5 6 6 7 7 5 3 4 7 9 6 1 4 9 11 10 9 9 9 13 13 12 9 9 10 9 9 11 13 13 11 11 12 10 9 13 15 11 8 8 8 8 8 7 7 5 5 4 4 4 4 4 3 3 3 3 3 3 3 2 3 3 3 2 1 2 1 1 2 2 2 1 1 2 2 2 2 4
2 0 2 3 3 3 4 5 7 8 8 8 7 6 10 11 7 5 8 3 3 1 6 10 11 12 9 6 3 9 10 10 11 13 14 14 14 15 14 14 14 13 15 16 13 10 8 8 6 6 6 5 5 5 5 4 4 4 3 3 3 3 3 2 2 2 2 2 2 2 1 1 1 2 2 2 2 2 2 2 2 2 2 2 3
1 2 3 3 5 4 4 5 5 6 7 8 8 8 6 8 15 12 7 8 9 11 11 13 16 14 14 9 9 14 15 16 15 14 15 15 16 17 17 17 18 19 18 13 8 8 8 7 5 5 5 4 5 4 4 4 4 3 3 2 2 3 3 2 2 1 2 2 1 1 1 1 1 1 2 2 2 3 3 2 1 2 2 3 4
2 2 3 4 5 5 4 6 7 6 6 7 9 9 8 9 9 14 14 14 14 12 12 13 14 13 15 17 11 7 11 13 15 14 14 16 17 17 18 19 18 18 15 14 10 6 5 7 6 5 5 5 4 3 3 3 3 2 2 3 2 1 2 2 1 1 1 1 1 1 0 0 1 1 1 2 2 3 3 3 3 3 4 4 4
3 3 3 5 5 6 6 6 6 7 8 7 7 8 8 10 11 10 12 17 18 17 14 11 14 14 14 14 18 16 13 12 14 15 15 16 17 18 18 18 16 15 16 11 9 7 5 6 6 5 5 5 4 3 2 2 2 3 2 2 3 2 1 1 1 1 1 1 1 0 0 1 1 2 2 2 3 4 4 4 4 3 4 4 5
4 4 4 5 6 6 6 6 6 6 7 8 7 7 7 8 10 10 10 11 11 13 15 14 12 15 14 15 16 15 15 15 15 16 17 17 18 19 16 12 12 12 13 9 8 7 6 6 6 5 4 4 4 3 3 2 2 2 2 1 1 1 2 1 1 1 1 1 1 1 1 2 2 2 3 3 3 3 4 4 4 4 5 5 6
4 5 7 6 4 5 6 6 6 6 6 6 8 8 8 9 10 10 11 11 9 10 6 5 9 9 10 11 13 16 15 15 17 17 19 19 20 20 18 12 9 6 6 5 6 6 6 6 6 5 5 5 4 4 4 3 2 2 2 2 2 1 1 2 1 1 1 1 2 2 2 2 2 3 3 4 5 5 6 6 6 6 7 7 7
4 4 3 5 5 4 4 5 5 6 6 7 8 8 8 7 9 8 9 8 10 9 7 5 5 7 11 11 14 15 16 16 17 18 19 20 20 19 12 10 9 6 6 5 6 5 6 5 5 4 4 4 3 3 3 3 3 2 2 2 3 2 1 1 0 1 1 2 3 4 4 4 4 4 4 4 5 5 6 6 6 6 7 7 7
3 3 2 5 5 4 4 4 5 5 5 5 7 8 7 7 9 7 8 8 9 8 7 7 7 7 7 7 10 13 15 16 16 17 17 17 16 11 9 9 7 7 7 6 6 6 6 5 5 5 4 4 3 3 3 3 3 3 2 1 1 2 1 2 3 3 3 3 2 2 3 3 3 3 4 4 5 5 5 6 6 6 7 8 8
4 4 3 4 4 4 4 4 5 7 6 6 6 7 8 8 8 6 7 8 10 10 9 7 8 8 8 6 9 9 10 12 14 11 10 10 8 7 7 6 7 7 7 5 6 6 6 5 4 5 4 4 4 3 3 3 2 2 2 2 2 3 5 4 5 3 3 2 3 3 3 3 3 4 4 4 5 5 6 6 6 7 7 8 7
4 5 8 8 6 5 4 4 4 6 8 7 5 5 7 8 9 9 8 8 8 8 8 8 7 8 8 8 8 10 13 9 7 6 6 5 6 6 6 6 6 6 6 6 5 5 5 5 4 3 4 4 4 3 3 3 2 1 2 2 3 3 4 3 3 3 3 3 3 3 3 3 4 4 4 4 5 5 6 6 6 6 7 7 7
5 5 7 10 6 6 4 4 4 5 7 8 7 7 6 9 10 10 10 10 11 10 10 9 8 7 8 9 9 9 10 8 6 6 6 6 6 6 6 6 6 6 6 5 5 5 5 4 4 4 4 4 3 3 1 2 2 3 3 3 3 3 3 2 2 3 3 3 3 3 3 4 4 4 4 4 4 5 5 6 6 6 6 6 7
4 6 7 7 7 7 6 6 5 7 6 6 8 8 8 7 8 9 9 9 10 10 10 8 8 8 9 10 11 9 9 7 7 7 7 7 6 6 6 5 5 5 5 5 5 4 4 4 3 3 2 2 2 2 2 3 3 3 4 3 4 3 2 2 2 3 3 2 3 3 3 4 4 4 5 5 5 5 4 5 5 5 5 6 6
5 5 6 6 7 7 7 7 7 8 7 7 7 7 8 9 9 10 10 10 10 9 9 9 8 8 9 13 12 13 8 6 7 7 6 6 6 5 5 5 5 6 5 5 5 5 3 3 3 2 3 2 3 3 3 3 3 3 4 3 3 3 3 3 3 2 2 3 3 3 4 4 4 4 4 4 5 5 5 6 6 6 6 6 6
4 5 6 6 6 7 7 7 7 7 7 7 7 6 7 9 10 9 10 10 10 11 11 10 8 7 7 10 12 11 8 6 7 7 6 5 5 5 5 5 5 5 6 4 3 4 4 4 4 3 2 2 2 2 3 3 3 4 4 4 3 3 3 2 2 2 3 3 3 3 4 4 4 4 4 4 4 4 5 6 6 6 6 6 6
4 4 5 6 6 7 8 8 8 7 7 7 6 6 7 5 6 8 9 9 9 10 10 9 11 9 7 8 9 8 7 7 6 6 6 6 6 5 5 4 4 4 4 4 4 4 4 4 4 4 3 3 3 3 4 3 3 4 4 4 4 4 3 2 2 2 3 3 3 4 4 4 4 3 3 4 4 5 5 6 6 5 6 5 6
4 6 6 6 7 7 7 7 8 9 10 9 8 7 5 4 5 6 8 8 7 6 7 10 8 8 8 7 7 7 7 7 6 5 5 6 6 5 5 4 4 5 5 4 4 4 4 4 5 5 5 4 4 4 4 4 4 4 4 4 4 3 2 1 1 2 2 2 3 3 3 3 3 3 3 4 4 5 5 5 5 6 6 6 6
3 5 6 7 8 8 9 9 10 10 10 9 9 9 8 7 6 7 10 12 12 10 7 6 7 7 7 7 7 7 7 6 6 5 5 5 5 5 4 4 5 5 4 4 4 5 5 5 5 5 5 5 4 4 4 4 4 4 4 4 4 3 2 1 1 1 2 2 2 2 2 2 3 3 4 4 4 4 4 5 5 5 5 6 7
1 4 7 8 8 8 9 10 10 10 10 9 9 9 9 8 7 8 9 11 13 10 7 7 6 6 7 7 7 7 7 6 6 5 5 5 5 5 5 5 5 4 4 4 4 5 5 5 5 6 6 5 5 5 4 4 4 4 3 2 2 2 2 1 1 2 2 2 2 1 2 2 3 3 4 4 4 4 5 5 5 6 5 5 6
4 6 7 8 9 9 9 9 10 11 10 11 10 10 10 11 9 9 8 7 8 8 6 6 6 6 6 6 6 6 6 6 6 6 6 5 4 4 5 5 4 4 4 4 4 4 5 5 5 5 6 6 6 5 4 3 3 2 2 2 2 1 2 2 2 3 2 2 1 1 1 2 2 3 3 4 4 4 4 5 5 5 5 6 6
7 9 10 10 9 9 9 10 10 10 10 11 11 11 10 9 7 7 8 8 8 8 8 8 7 6 6 6 6 6 6 6 6 6 6 5 5 5 4 4 4 4 4 4 4 5 5 5 6 5 5 5 5 5 4 4 3 2 2 1 2 3 5 6 3 3 3 2 1 1 1 2 2 3 3 4 4 4 5 5 5 5 6 6 6
10 11 12 12 12 11 10 10 10 10 9 9 9 9 8 8 9 8 8 8 8 9 8 5 4 5 5 6 5 6 6 6 6 6 5 5 4 4 4 4 4 4 4 5 5 5 5 5 6 6 5 5 5 4 4 3 3 2 2 1 3 5 5 4 3 4 4 2 2 2 2 2 2 3 3 4 4 4 5 5 5 5 6 6 6
11 13 13 13 13 12 12 12 11 10 11 11 10 10 10 9 8 7 7 7 7 7 6 6 5 4 5 5 6 6 5 5 5 5 5 5 5 5 4 4 5 5 5 5 5 5 5 5 5 5 5 5 4 4 3 2 2 2 2 3 4 4 5 4 3 6 6 5 3 2 2 2 3 3 4 4 4 4 5 5 5 6 6 6 5
Wind_Direction
210 213 207 209 210 211 212 212 214 212 211 219 217 210 207 202 201 198 188 200 196 193 199 204 205 208 208 208 208 201 202 202 195 193 194 204 206 208 186 158 156 165 179 191 107 124 133 166 186 191 161 170 174 161 176 177 163 159 154 156 181 169 174 187 237 268 268 57 29 10 345 350 346 352 342 337 332 332 335 331 332 339 341 340 338
210 212 211 210 211 213 215 214 214 155 89 19 345 313 260 218 193 174 181 190 184 188 194 195 200 197 197 201 205 199 201 208 199 188 197 202 208 199 168 155 174 174 175 177 177 149 143 165 187 161 196 205 120 45 271 251 219 194 212 216 224 222 195 203 236 260 284 312 335 331 310 8 337 341 343 340 338 338 338 336 329 336 339 338 338
211 210 210 213 215 215 179 76 80 113 143 159 186 211 238 44 255 182 184 190 194 191 189 191 198 191 196 198 200 200 201 205 197 194 200 206 202 202 175 170 180 184 182 181 178 164 167 172 186 185 186 199 170 168 258 263 238 216 217 206 231 230 213 206 215 251 275 298 307 310 330 348 340 337 340 338 335 336 336 342 337 334 333 332 330
219 216 217 218 217 125 108 154 177 170 169 186 196 203 180 166 196 202 197 189 194 203 205 204 190 182 191 199 201 204 205 206 195 193 202 202 197 192 183 169 116 152 194 161 164 181 187 193 204 186 191 203 212 179 200 242 242 241 234 225 231 249 236 201 208 244 257 300 268 286 355 348 345 334 343 340 348 350 351 341 339 349 338 333 336
237 225 222 219 150 132 161 161 76 100 180 211 207 196 176 184 195 200 198 199 202 203 213 214 197 182 193 204 208 208 208 203 200 200 204 204 199 182 110 102 192 198 171 143 180 167 190 212 220 192 190 228 231 237 214 218 219 209 222 220 234 249 206 196 209 214 263 289 300 232 51 7 326 334 351 351 350 355 349 357 352 349 338 335 340
254 266 302 53 123 158 157 121 122 160 195 217 215 198 188 192 200 205 198 204 205 207 212 207 194 195 199 204 204 207 204 199 200 201 198 170 150 124 136 164 180 193 169 164 159 179 199 209 206 198 198 208 223 224 236 218 199 206 231 237 225 222 199 214 225 225 222 240 302 337 33 348 349 350 340 353 353 351 342 347 352 8 353 346 347
77 88 91 119 185 192 151 128 150 175 193 210 200 197 199 200 200 203 199 202 206 211 215 208 201 200 208 205 205 200 195 190 190 181 160 145 140 146 146 160 175 173 149 152 189 212 211 200 180 181 198 195 206 219 208 208 212 225 218 211 214 179 213 222 234 283 312 290 214 76 318 63 7 342 333 334 324 358 354 343 344 358 344 359 335
182 132 118 156 191 203 142 155 197 197 206 209 199 201 201 202 206 205 191 198 206 206 204 206 211 209 207 202 196 183 179 178 170 162 160 152 149 141 141 148 152 139 179 176 181 198 196 186 158 182 196 211 220 222 212 214 203 205 214 214 194 195 175 242 241 236 244 313 58 315 65 6 0 337 314 334 360 15 9 346 343 346 340 344 325
85 94 103 188 216 196 152 179 207 208 212 210 192 198 204 206 200 186 174 183 193 223 220 210 208 210 203 192 181 173 171 171 168 164 153 139 148 155 152 146 138 108 303 288 186 170 160 163 186 214 220 229 229 224 217 218 187 195 201 197 165 184 181 198 224 194 244 187 218 93 35 14 13 357 356 12 17 354 333 354 348 346 340 335 338
161 153 159 183 213 215 166 172 205 208 212 213 202 204 208 199 186 196 198 194 180 191 232 237 212 202 188 176 171 168 169 164 178 172 160 152 153 152 138 136 131 142 208 216 220 213 191 181 204 199 160 123 96 100 119 124 157 194 172 190 183 188 206 204 214 227 224 220 134 114 88 33 360 4 347 334 325 346 3 13 12 354 358 350 304
195 188 172 174 193 208 198 185 192 204 210 212 204 209 212 204 195 198 199 200 200 190 190 210 230 207 189 173 170 174 172 176 178 172 165 148 140 131 132 148 137 140 159 162 170 152 122 79 57 71 51 50 55 71 93 113 126 132 168 193 193 178 186 201 212 208 235 108 123 120 112 58 10 347 319 312 330 9 2 346 355 13 19 6 357
217 205 193 187 184 192 204 198 207 214 215 211 206 209 207 203 201 201 199 197 198 181 198 203 211 234 208 180 175 173 175 182 156 133 119 132 131 135 146 154 141 141 147 145 140 133 115 100 87 85 81 71 66 52 58 102 112 113 98 81 83 128 155 213 166 101 93 125 115 120 95 44 18 358 3 356 349 352 352 356 11 10 350 343 330
196 200 207 206 201 197 188 193 213 230 228 214 200 206 206 209 211 206 203 193 176 192 192 153 128 98 18 8 351 330 207 142 127 133 162 159 148 141 150 147 149 152 139 136 128 120 124 115 104 60 63 71 64 72 69 52 83 75 62 66 77 75 70 77 73 82 119 111 113 74 45 39 35 25 348 332 302 328 336 3 360 340 333 327 345
204 203 201 200 199 192 191 195 212 226 227 217 197 196 203 215 220 211 190 170 184 181 129 112 107 117 168 188 122 46 349 123 140 157 169 148 134 126 135 142 143 142 144 136 123 121 116 115 106 87 75 73 74 93 92 84 82 69 69 67 65 64 63 64 71 74 74 80 83 82 57 57 68 0 333 320 333 355 338 12 357 11 358 343 331
205 203 206 210 205 198 196 200 212 214 213 217 209 206 206 210 214 215 163 120 86 72 93 118 134 150 170 141 141 139 148 154 162 159 155 136 127 125 130 131 131 126 119 110 111 113 102 101 103 108 98 87 107 117 108 98 89 81 76 66 55 55 52 40 53 58 64 69 76 79 71 59 47 31 7 319 260 318 312 328 15 20 347 290 245
236 212 217 218 216 209 211 217 217 215 215 214 214 217 214 205 197 140 99 89 95 101 81 97 123 159 163 157 159 171 181 176 158 147 139 132 127 121 120 118 119 117 109 106 102 100 103 108 113 109 107 104 97 104 107 106 95 95 89 80 71 68 65 59 56 66 68 66 67 65 59 52 45 38 27 16 16 7 9 61 44 23 15 28 32
259 218 210 204 207 205 203 209 214 215 208 201 209 206 195 186 143 121 117 128 135 141 150 150 158 160 160 164 174 187 142 148 142 140 140 135 127 121 118 115 114 111 108 104 102 99 100 106 108 107 97 95 97 102 115 109 94 95 95 83 72 63 54 62 61 60 63 61 59 56 53 47 43 42 37 30 27 12 11 53 33 20 42 31 27
279 277 241 207 203 202 206 209 212 207 200 201 196 177 172 159 136 139 145 153 156 150 145 154 167 170 173 177 178 140 142 158 146 145 142 140 138 130 128 124 119 114 110 101 102 102 102 102 104 106 108 105 101 103 110 103 96 98 92 88 73 63 48 26 56 59 57 58 52 50 47 46 44 45 43 40 37 31 39 44 352 357 54 36 23
290 289 285 260 217 200 205 208 210 209 207 203 190 166 164 148 145 155 161 155 138 141 155 164 169 168 158 143 154 162 161 164 162 155 147 142 136 131 130 124 121 120 116 107 95 96 93 98 105 106 101 101 96 95 95 97 95 90 94 88 82 70 49 49 56 56 41 42 34 37 38 36 38 37 38 41 42 42 41 42 34 63 64 51 31
289 292 286 265 243 212 202 204 202 202 206 200 182 158 146 143 155 152 160 150 151 160 162 156 154 157 155 161 174 169 157 153 168 162 147 139 136 135 136 129 127 127 120 119 106 91 91 87 78 80 95 95 90 86 81 85 94 94 97 97 105 94 72 81 70 72 64 61 51 44 43 34 36 38 35 34 34 31 34 34 24 34 65 71 63
281 265 264 258 248 232 203 202 208 206 203 188 166 155 156 157 155 154 153 150 149 153 153 147 142 149 155 157 153 158 163 151 162 160 142 139 140 137 138 129 131 130 129 124 122 118 108 97 99 96 98 96 93 89 89 89 96 94 90 97 92 116 99 79 73 70 68 62 56 48 42 36 38 40 36 34 37 31 34 39 43 39 55 69 71
276 253 248 246 252 252 223 207 223 192 148 158 165 162 159 153 154 155 145 140 144 146 143 140 137 133 128 131 143 149 156 148 142 158 145 144 143 136 131 140 139 129 120 117 116 111 119 123 119 120 110 105 101 97 93 91 88 84 80 92 98 90 83 86 81 72 66 63 59 53 44 37 38 40 39 40 37 37 38 42 47 60 59 60 64
263 239 229 238 244 245 207 183 173 159 166 169 155 156 150 137 125 141 144 142 141 140 137 132 132 130 124 124 128 128 129 142 150 150 150 147 143 134 133 134 137 130 131 129 128 127 126 123 126 126 110 103 98 95 92 88 82 86 88 81 80 87 89 76 79 74 71 67 65 62 52 43 45 40 37 38 40 44 49 45 48 52 60 68 75
264 241 235 233 227 223 224 191 162 171 170 159 155 143 126 112 131 145 134 140 140 139 139 139 138 135 133 128 124 125 135 140 154 150 146 142 136 135 136 138 137 129 122 124 129 129 129 127 121 116 104 99 95 89 85 85 95 95 90 92 88 84 80 84 76 81 83 78 74 69 63 54 56 49 40 32 46 52 61 55 49 52 58 54 51
259 258 266 275 49 108 157 183 174 163 157 139 118 136 123 130 143 147 153 151 142 141 142 150 140 138 133 132 133 133 132 133 135 144 134 135 134 134 132 127 121 116 111 119 125 127 120 120 122 112 109 102 97 92 87 88 91 87 85 87 89 78 82 86 88 89 86 87 88 84 79 71 67 66 50 41 58 59 63 59 64 57 38 39 52
273 258 250 62 229 235 57 126 162 157 160 149 154 189 153 138 131 148 152 146 145 146 146 148 138 138 134 136 135 132 129 123 117 122 127 127 129 132 128 124 122 119 119 126 126 121 123 126 122 116 108 104 99 96 99 102 96 93 92 88 84 89 91 94 90 90 92 92 90 87 85 75 67 61 51 51 51 42 37 40 35 41 28 27 30
280 286 117 188 252 265 216 148 166 169 149 126 135 162 157 142 143 147 148 150 149 153 151 149 142 140 140 138 133 131 129 128 128 124 125 127 125 126 120 116 115 111 103 114 119 123 128 130 120 110 101 101 101 103 101 98 90 83 78 87 86 89 88 92 108 110 109 107 101 99 89 82 72 57 44 44 53 41 33 60 60 54 42 41 49
313 259 211 154 149 194 216 192 157 126 132 120 136 159 159 152 140 146 161 157 156 158 157 155 149 146 144 140 134 128 126 133 135 137 139 132 132 131 124 121 124 124 119 125 130 132 127 118 108 99 96 80 82 78 80 89 98 99 82 72 77 94 104 105 98 88 95 104 103 94 66 51 56 50 59 53 56 47 23 58 55 57 46 4 51
335 350 134 126 133 160 171 140 130 126 93 70 52 57 144 152 145 129 237 193 174 167 157 154 151 148 146 143 137 133 137 142 151 143 145 146 140 136 136 136 135 131 138 136 125 112 113 110 108 108 104 108 100 104 106 106 97 100 104 101 106 93 83 73 83 85 94 93 84 82 84 82 79 57 78 70 41 31 353 34 34 25 31 22 36
330 146 128 125 130 154 132 133 127 128 122 113 107 69 42 46 35 133 148 93 67 274 175 156 150 144 127 113 104 145 152 143 121 121 127 127 123 120 121 128 131 131 137 135 127 126 124 117 113 110 116 114 121 119 126 124 118 109 103 97 90 90 86 87 86 92 87 90 100 94 102 89 58 37 22 37 17 10 1 16 1 354 355 358 356
258 145 143 142 150 143 132 120 120 117 128 131 126 116 88 44 39 40 90 139 139 131 122 127 135 143 135 130 66 71 103 112 118 119 117 116 115 118 122 121 121 126 130 126 118 122 124 119 119 117 121 130 131 138 139 135 127 122 113 106 85 95 100 94 82 113 117 119 117 108 82 49 36 3 9 351 345 335 330 339 325 321 325 330 321
230 185 156 143 140 139 138 140 135 131 137 145 138 136 124 111 67 31 50 73 59 62 90 102 104 102 116 120 113 73 90 108 118 118 119 120 122 124 124 125 129 131 132 120 117 110 112 121 125 130 138 136 142 149 143 135 131 133 142 131 124 113 116 106 145 129 136 142 144 141 81 26 327 312 303 309 307 307 300 310 313 315 310 299 293
196 160 156 149 143 146 145 148 146 144 146 142 133 134 129 121 107 92 46 55 67 67 52 64 93 103 104 112 125 134 138 131 121 120 122 123 124 127 127 125 122 120 116 116 120 114 114 118 129 139 142 143 144 145 142 142 150 157 174 165 161 167 149 140 185 151 139 179 197 198 264 278 290 291 283 285 288 299 306 304 302 294 288 287 286
208 166 161 155 144 153 161 157 157 156 154 151 134 115 119 126 129 124 116 114 78 59 53 47 59 84 81 99 107 109 117 124 123 122 122 123 123 122 117 114 109 120 127 131 124 130 132 134 136 138 135 134 141 142 149 156 154 148 151 159 172 186 169 168 171 140 166 200 233 252 268 278 274 288 290 288 289 291 294 294 296 296 296 296 296
222 216 191 158 151 167 166 158 151 153 156 139 132 142 132 139 139 140 142 127 116 118 117 62 31 44 108 105 110 118 122 124 125 127 127 127 125 123 116 112 109 82 79 89 117 124 136 137 140 145 146 143 154 157 157 165 149 145 144 149 158 168 181 164 133 105 239 248 255 248 264 278 289 297 310 316 314 310 308 309 308 307 307 304 304
208 213 189 151 142 163 169 160 154 154 155 144 137 122 127 145 134 127 125 112 115 118 109 79 88 57 76 95 117 121 122 125 130 131 133 131 132 127 123 130 121 106 115 121 126 127 125 134 136 138 138 140 144 146 146 145 153 140 150 155 157 173 148 147 120 343 3 350 352 354 348 346 356 346 333 321 314 310 307 308 310 313 311 310 310
203 201 154 136 148 160 171 162 161 151 128 109 114 125 143 147 131 129 127 127 123 119 111 122 113 95 80 85 95 102 115 123 126 129 133 136 132 124 126 129 120 121 125 129 130 132 130 136 132 138 144 142 143 137 142 133 146 149 153 137 116 129 41 37 38 40 33 33 27 20 17 13 1 359 349 328 318 314 317 321 320 317 314 315 315
196 175 147 133 143 149 156 166 159 131 105 97 122 144 143 140 135 119 121 121 126 127 127 129 122 127 124 117 119 118 113 110 104 94 96 99 98 110 116 117 124 128 129 132 134 134 133 133 144 145 151 139 139 146 144 152 157 166 158 131 74 56 56 61 53 51 58 48 40 22 13 7 358 346 333 324 324 328 326 326 323 320 320 321 325
179 155 140 137 146 155 160 165 156 131 115 105 120 137 143 133 122 124 122 127 125 121 125 127 124 125 122 128 128 134 124 126 129 128 115 105 103 106 114 111 113 118 127 132 138 134 137 142 147 138 140 145 146 157 161 163 168 126 85 95 79 55 52 53 53 43 45 40 27 12 0 348 340 339 339 337 333 334 332 331 329 331 330 331 331
158 147 151 145 137 140 144 142 137 123 120 123 138 154 141 136 137 138 142 139 138 137 136 133 130 126 133 139 141 140 131 127 125 128 121 114 113 107 108 120 125 131 134 137 135 139 133 138 139 139 145 154 153 149 125 98 103 100 88 76 81 75 65 62 60 49 41 24 12 359 349 344 339 338 339 347 345 345 341 337 339 340 339 335 333
161 156 156 154 142 139 133 124 109 101 115 139 151 144 145 134 127 134 136 136 131 129 127 128 128 133 141 139 135 132 131 129 128 123 123 123 119 117 118 122 130 132 136 138 133 131 132 135 143 139 127 111 102 99 110 110 101 92 83 88 89 94 90 77 63 49 33 11 358 346 344 344 344 350 350 348 353 350 347 346 346 346 344 344 344
160 150 143 142 143 136 130 125 125 132 138 137 137 141 130 132 142 142 137 137 137 134 128 127 131 133 133 130 127 125 119 114 116 116 120 122 123 123 127 126 130 140 143 142 142 137 127 115 113 113 112 105 111 111 107 97 92 97 104 103 103 101 86 67 50 36 9 0 348 342 351 351 350 357 350 349 353 350 348 355 353 351 352 353 355
175 154 153 148 147 143 130 125 125 126 120 126 136 130 141 146 144 139 135 136 136 137 135 131 130 126 127 130 124 118 115 119 120 119 121 118 121 121 124 134 140 147 148 128 114 115 120 116 100 80 80 81 84 106 112 115 117 114 110 105 100 90 83 69 38 18 2 345 337 345 354 351 357 358 349 355 351 343 355 356 356 354 353 350 353
141 142 159 151 127 113 120 127 125 123 118 114 109 106 114 111 118 126 130 130 133 135 133 133 135 129 125 122 117 116 119 120 119 115 121 121 126 125 126 125 131 119 99 104 116 120 115 108 103 92 82 83 80 84 88 96 109 113 115 112 105 96 81 56 29 3 346 333 338 349 353 356 354 345 338 349 349 352 351 354 354 352 353 353 352
148 161 152 133 125 121 112 107 110 114 114 109 91 81 77 79 108 115 108 99 88 87 110 124 123 121 122 126 124 120 123 121 119 115 123 129 133 131 133 132 112 99 103 109 112 110 105 103 110 109 102 89 84 83 84 86 86 94 98 99 100 91 79 52 14 351 334 345 353 353 352 345 341 335 341 350 346 346 348 349 348 344 349 355 353
155 152 136 125 121 118 117 118 120 120 121 118 114 109 102 93 97 109 115 112 106 107 101 113 121 122 121 119 117 117 116 116 118 122 128 127 114 96 92 103 94 99 98 108 110 102 106 112 114 112 111 109 102 96 92 94 90 84 80 84 87 91 79 50 4 1 20 12 0 348 336 330 330 326 337 335 343 341 343 342 339 339 347 348 351
91 129 130 125 122 119 116 120 121 120 112 105 102 101 97 95 98 96 92 97 112 115 118 128 120 118 118 119 119 115 113 115 121 125 119 105 103 112 112 108 97 92 93 90 88 100 105 105 109 112 116 115 111 108 103 98 91 91 87 84 89 85 76 51 51 37 25 11 349 318 327 323 325 323 329 334 334 337 333 341 342 341 343 347 343
60 71 89 103 111 112 110 106 105 104 104 106 108 109 111 110 105 97 100 100 96 103 109 102 100 103 106 106 108 113 117 115 109 103 100 99 101 104 104 97 99 102 100 93 91 94 107 114 117 117 119 122 121 118 111 103 97 101 103 98 85 78 76 64 55 37 18 342 319 317 320 320 318 315 325 332 329 329 332 339 344 346 348 347 340
59 72 80 79 79 83 91 95 98 99 104 108 104 102 96 85 80 94 106 103 98 91 86 89 92 96 102 103 107 108 108 109 108 104 103 105 102 92 96 97 102 102 102 105 108 108 112 116 119 116 116 121 121 122 124 127 132 136 133 120 110 98 73 55 41 25 354 333 349 335 303 284 298 309 324 329 326 323 328 334 339 340 338 336 338
72 74 81 80 79 77 79 82 84 89 90 90 93 93 91 100 109 107 98 93 92 98 104 105 96 87 92 111 123 122 122 119 116 115 115 115 110 108 106 107 102 101 106 114 116 119 116 117 119 123 123 123 124 128 132 138 146 145 153 133 99 65 53 47 57 34 9 356 333 316 311 304 305 315 325 325 320 328 330 339 344 340 335 329 326
82 85 86 89 89 88 88 90 91 96 99 102 97 93 90 88 81 76 77 80 94 114 127 131 136 141 140 137 125 116 115 115 119 124 126 125 125 122 120 115 115 111 107 110 114 116 121 122 126 125 125 130 134 136 140 140 151 160 134 102 71 56 45 29 10 358 355 332 305 302 300 313 314 322 326 329 325 325 333 337 335 334 330 325 321